CZ-2D R/B (43101 NORAD) Tracking and Keplerian Element Data

This shows tracking and keplerian element data for the satellite.

Feedback or suggestion? Click here.




ElementValue
Catalog43101
NameCZ-2D R/B
Epoch Orbit454
Epoch Day39.20769558
Epoch Year2018
RAAN116.2141
Inclination97.5839
Eccentricity0.001502
Argument of Perigee181.8828
Mean Anonmoly178.235
Mean Motion15.13213414
Decay Rate1.075E-05
L11 43101U 18002C 18039.20769558 .00001075 00000-0 64146-4 0 9991
L22 43101 97.5839 116.2141 0015020 181.8828 178.2350 15.13213414 4546

Live tracking and technical data element details for CZ-2D R/B (NORAD 43101). CZ-2D R/B can be tracked NOW for your location showing map with azimuth and elevation plus other details from your city location.

Track the satellite on the map from your city or location and see movement details for azimuth, elevation, latitude, longitude, range, height, and movement on the map or in text.







IsCatalogInMostPopularTable: catalog: 43101, numindb: 147
Update: records affected: 1



GetName: 43101 CZ-2D R/B

Hit Count: updated at: Fri, 16 Nov 2018 02:53:56 GMT